Location: Gwatt
(46.7204°N, 7.6223°E)
Time: 16:59:18
(UTC+00:00)

OBJECT-B - Pass Details

Date: 18 September 2020
Orbit: 421 x 433 km, 97.0° (Epoch: 09 October)

Event Time Altitude Azimuth Distance (km) Brightness Sun altitude
Exits shadow 19:01:25 29° 73° (ENE) 802 1.7 -15.4°
Maximum altitude 19:01:28 29° 71° (ENE) 801 1.7 -15.4°
Drops below altitude 10° 19:04:21 10° 9° (N) 1,522 3.7 -15.9°
Sets 19:06:31 0° 358° (N) 2,394 4.9 -16.2°
